EDW79 FSIA-LSZH

Flight info

Callsign EDW79
Flight time N/A
Altitude 30000
Route ROUTY DCT XABAL DCT ESTOK/N0486F320 UM651 KUSUB G651 MURAL/N0486F330 UM651 HARGA/N0483F320 UR775 SB UA451 ASM/N0481F330 UG650 ULONI G650 RASKA/N0476F340 T513 EGMEG/N0467F330 G660 JDW/N0472F340 L677 CVO L617 MENKU Y661 ANTAR/N0462F360 DCT SOTIX DCT AMISI DCT DISOR DCT LONTA UL608 DOLEV DCT GORPA DCT ERKIR DCT KPT L856 NEGRA
Aircraft A343/H-SDE2E3FGHIJ4J5M1RWXY/LB1D1

Departure

Time 2026-04-23 19:47
Airport Seychelles International Airport (FSIA)

Arrival

Time N/A
Airport Zürich Airport (LSZH)
Time Latitude Longitude Altitude Speed Heading
2026-04-23 19:27 -4.67039 55.51165 24 ft 0 kts 215°
2026-04-23 19:39 -4.67028 55.51174 25 ft 4 kts 223°
2026-04-23 19:40 -4.67012 55.51194 24 ft 4 kts 249°
2026-04-23 19:40 -4.67007 55.51220 27 ft 4 kts 277°
2026-04-23 19:40 -4.67015 55.51245 29 ft 4 kts 301°
2026-04-23 19:40 -4.67019 55.51252 24 ft 0 kts 305°
2026-04-23 19:43 -4.67009 55.51238 25 ft 5 kts 308°
2026-04-23 19:43 -4.66978 55.51218 24 ft 4 kts 345°
2026-04-23 19:43 -4.66966 55.51221 24 ft 3 kts
2026-04-23 19:43 -4.66919 55.51209 26 ft 11 kts 331°
2026-04-23 19:44 -4.66854 55.51134 24 ft 17 kts 304°
2026-04-23 19:44 -4.66789 55.51042 24 ft 16 kts 314°
2026-04-23 19:44 -4.66707 55.51048 27 ft 11 kts 38°
2026-04-23 19:44 -4.66695 55.51097 26 ft 5 kts 100°
2026-04-23 19:45 -4.66709 55.51128 26 ft 5 kts 121°
2026-04-23 19:45 -4.66726 55.51151 31 ft 4 kts 132°
2026-04-23 19:45 -4.66741 55.51168 29 ft 3 kts 129°
2026-04-23 19:45 -4.66812 55.51265 27 ft 37 kts 125°
2026-04-23 19:46 -4.67045 55.51607 28 ft 85 kts 124°
2026-04-23 19:46 -4.67477 55.52238 31 ft 133 kts 124°
2026-04-23 19:46 -4.68091 55.53115 46 ft 171 kts 124°
2026-04-23 19:46 -4.68705 55.54146 538 ft 172 kts 118°
2026-04-23 19:47 -4.69261 55.55231 960 ft 185 kts 110°
2026-04-23 19:47 -4.69197 55.56579 1174 ft 208 kts 64°
2026-04-23 19:47 -4.68229 55.57738 1388 ft 230 kts 41°
2026-04-23 19:47 -4.66927 55.58797 1510 ft 254 kts 39°
2026-04-23 19:48 -4.65400 55.59807 1512 ft 280 kts 22°
2026-04-23 19:48 -4.63472 55.60100 1531 ft 285 kts 353°
2026-04-23 19:48 -4.61491 55.59779 1519 ft 292 kts 345°
2026-04-23 19:48 -4.59483 55.59358 1519 ft 294 kts 344°
2026-04-23 19:49 -4.57512 55.58919 1519 ft 287 kts 344°
2026-04-23 19:49 -4.55568 55.58502 1522 ft 285 kts 345°
2026-04-23 19:49 -4.53620 55.58122 1521 ft 285 kts 346°
2026-04-23 19:49 -4.51669 55.57770 1526 ft 284 kts 346°
2026-04-23 19:50 -4.49720 55.57434 1525 ft 284 kts 346°
2026-04-23 19:50 -4.47774 55.57107 1523 ft 282 kts 346°
2026-04-23 19:50 -4.45840 55.56787 1525 ft 281 kts 346°
2026-04-23 19:50 -4.43908 55.56471 1522 ft 281 kts 346°
2026-04-23 19:51 -4.41977 55.56155 1523 ft 281 kts 347°
2026-04-23 19:51 -4.40052 55.55842 1522 ft 280 kts 347°
2026-04-23 19:51 -4.38127 55.55529 1527 ft 280 kts 347°
2026-04-23 19:51 -4.36205 55.55216 1525 ft 280 kts 347°
2026-04-23 19:52 -4.34279 55.54904 1527 ft 280 kts 347°
2026-04-23 19:52 -4.32381 55.54595 1524 ft 280 kts 347°
2026-04-23 19:52 -4.30459 55.54283 1523 ft 280 kts 347°
2026-04-23 19:52 -4.28535 55.53971 1527 ft 279 kts 347°
2026-04-23 19:53 -4.26620 55.53661 1525 ft 279 kts 347°
2026-04-23 19:53 -4.24698 55.53349 1519 ft 279 kts 347°
2026-04-23 19:53 -4.22795 55.52975 1625 ft 278 kts 339°
2026-04-23 19:53 -4.21138 55.52021 1991 ft 277 kts 310°
2026-04-23 19:54 -4.19938 55.50489 2456 ft 282 kts 298°
2026-04-23 19:54 -4.18975 55.48769 2969 ft 284 kts 293°
2026-04-23 19:54 -4.18108 55.46982 3515 ft 286 kts 291°
2026-04-23 19:54 -4.17243 55.45182 4058 ft 287 kts 293°
2026-04-23 19:55 -4.16309 55.43407 4607 ft 288 kts 295°
2026-04-23 19:55 -4.15312 55.41661 5147 ft 289 kts 297°
2026-04-23 19:55 -4.14272 55.39926 5662 ft 291 kts 298°
2026-04-23 19:55 -4.13223 55.38216 6177 ft 292 kts 298°
2026-04-23 19:56 -4.12150 55.36477 6670 ft 294 kts 298°
2026-04-23 19:56 -4.11069 55.34723 7118 ft 297 kts 298°
2026-04-23 19:56 -4.09982 55.32950 7560 ft 300 kts 298°
2026-04-23 19:56 -4.08888 55.31160 7986 ft 303 kts 298°
2026-04-23 19:57 -4.07785 55.29349 8421 ft 305 kts 298°
2026-04-23 19:57 -4.06676 55.27525 8851 ft 308 kts 298°
2026-04-23 19:57 -4.05560 55.25688 9272 ft 310 kts 298°
2026-04-23 19:57 -4.04435 55.23836 9691 ft 312 kts 298°
2026-04-23 19:58 -4.03302 55.21970 10045 ft 317 kts 298°
2026-04-23 19:58 -4.02139 55.20045 10201 ft 328 kts 297°
2026-04-23 19:58 -4.00941 55.18055 10344 ft 339 kts 298°
2026-04-23 19:58 -3.99700 55.15998 10476 ft 350 kts 298°
2026-04-23 19:59 -3.98415 55.13884 10616 ft 360 kts 298°
2026-04-23 19:59 -3.97083 55.11710 10756 ft 370 kts 299°
2026-04-23 19:59 -3.95719 55.09499 10947 ft 377 kts 299°
2026-04-23 19:59 -3.94329 55.07253 11220 ft 381 kts 299°
2026-04-23 20:00 -3.92929 55.04989 11556 ft 383 kts 299°
2026-04-23 20:00 -3.91525 55.02709 11892 ft 386 kts 299°
2026-04-23 20:00 -3.90118 55.00412 12218 ft 388 kts 299°
2026-04-23 20:00 -3.88707 54.98101 12565 ft 390 kts 299°
2026-04-23 20:01 -3.87292 54.95776 12906 ft 392 kts 299°
2026-04-23 20:01 -3.85888 54.93469 13250 ft 393 kts 299°
2026-04-23 20:01 -3.84462 54.91124 13601 ft 395 kts 299°
2026-04-23 20:01 -3.83031 54.88768 13918 ft 397 kts 299°
2026-04-23 20:02 -3.81591 54.86399 14237 ft 399 kts 299°
2026-04-23 20:02 -3.80142 54.84017 14554 ft 401 kts 299°
2026-04-23 20:02 -3.78691 54.81634 14894 ft 402 kts 299°
2026-04-23 20:02 -3.77235 54.79242 15211 ft 403 kts 299°
2026-04-23 20:03 -3.75769 54.76831 15510 ft 406 kts 299°
2026-04-23 20:03 -3.74299 54.74416 15817 ft 407 kts 299°
2026-04-23 20:03 -3.72821 54.71988 16135 ft 409 kts 299°
2026-04-23 20:03 -3.71334 54.69548 16463 ft 410 kts 299°
2026-04-23 20:04 -3.69866 54.67135 16755 ft 412 kts 299°
2026-04-23 20:04 -3.68369 54.64677 17051 ft 414 kts 299°
2026-04-23 20:04 -3.66866 54.62207 17350 ft 416 kts 299°
2026-04-23 20:04 -3.65356 54.59729 17636 ft 418 kts 299°
2026-04-23 20:05 -3.64351 54.58079 17866 ft 419 kts 299°
2026-04-23 20:05 -3.62316 54.54738 18263 ft 421 kts 299°
2026-04-23 20:05 -3.60789 54.52230 18571 ft 423 kts 299°
2026-04-23 20:05 -3.59254 54.49710 18869 ft 424 kts 299°
2026-04-23 20:06 -3.57715 54.47183 19162 ft 426 kts 300°
2026-04-23 20:06 -3.56170 54.44647 19446 ft 427 kts 300°
2026-04-23 20:06 -3.54619 54.42102 19728 ft 429 kts 300°
2026-04-23 20:06 -3.53081 54.39577 19994 ft 430 kts 300°
2026-04-23 20:07 -3.51521 54.37018 20265 ft 432 kts 300°
2026-04-23 20:07 -3.49952 54.34445 20523 ft 433 kts 300°
2026-04-23 20:07 -3.48380 54.31865 20763 ft 435 kts 300°
2026-04-23 20:07 -3.46802 54.29278 21011 ft 436 kts 300°
2026-04-23 20:08 -3.45220 54.26684 21264 ft 437 kts 300°
2026-04-23 20:08 -3.43634 54.24081 21498 ft 438 kts 300°
2026-04-23 20:08 -3.42041 54.21469 21728 ft 440 kts 300°
2026-04-23 20:08 -3.40443 54.18848 21941 ft 441 kts 300°
2026-04-23 20:09 -3.38842 54.16224 22165 ft 442 kts 300°
2026-04-23 20:09 -3.37237 54.13593 22386 ft 444 kts 300°
2026-04-23 20:09 -3.35624 54.10948 22585 ft 445 kts 300°
2026-04-23 20:09 -3.34008 54.08300 22794 ft 446 kts 300°
2026-04-23 20:10 -3.32936 54.06542 22939 ft 447 kts 300°
2026-04-23 20:10 -3.30766 54.02986 23199 ft 449 kts 301°
2026-04-23 20:10 -3.29138 54.00319 23396 ft 450 kts 301°
2026-04-23 20:10 -3.27506 53.97645 23569 ft 451 kts 301°
2026-04-23 20:11 -3.25891 53.95000 23792 ft 451 kts 301°
2026-04-23 20:11 -3.24252 53.92315 23978 ft 452 kts 301°
2026-04-23 20:11 -3.22611 53.89626 24168 ft 453 kts 301°
2026-04-23 20:11 -3.20967 53.86932 24311 ft 454 kts 301°
2026-04-23 20:12 -3.19318 53.84231 24502 ft 456 kts 300°
2026-04-23 20:12 -3.17664 53.81522 24645 ft 457 kts 300°
2026-04-23 20:12 -3.16005 53.78807 24821 ft 458 kts 300°
2026-04-23 20:12 -3.14340 53.76081 24992 ft 459 kts 300°
2026-04-23 20:13 -3.12675 53.73355 25158 ft 460 kts 300°
2026-04-23 20:13 -3.11006 53.70622 25320 ft 461 kts 300°
2026-04-23 20:13 -3.09334 53.67885 25486 ft 462 kts 300°
2026-04-23 20:13 -3.07644 53.65149 25610 ft 462 kts 302°
2026-04-23 20:14 -3.05709 53.62581 25718 ft 463 kts 310°
2026-04-23 20:14 -3.03426 53.60321 25878 ft 462 kts 318°
2026-04-23 20:14 -3.00865 53.58373 26100 ft 461 kts 322°
2026-04-23 20:14 -2.98233 53.56541 26258 ft 462 kts 323°
2026-04-23 20:15 -2.95557 53.54759 26385 ft 463 kts 324°
2026-04-23 20:15 -2.92853 53.52997 26519 ft 464 kts 324°
2026-04-23 20:15 -2.90139 53.51237 26653 ft 465 kts 324°
2026-04-23 20:15 -2.87419 53.49472 26789 ft 466 kts 324°
2026-04-23 20:16 -2.84699 53.47700 26923 ft 467 kts 324°
2026-04-23 20:16 -2.81979 53.45920 27059 ft 468 kts 324°
2026-04-23 20:16 -2.79289 53.44154 27185 ft 469 kts 324°
2026-04-23 20:16 -2.76560 53.42361 27315 ft 470 kts 324°
2026-04-23 20:17 -2.73819 53.40557 27408 ft 472 kts 324°
2026-04-23 20:17 -2.71072 53.38750 27531 ft 473 kts 324°
2026-04-23 20:17 -2.68322 53.36942 27667 ft 473 kts 324°
2026-04-23 20:17 -2.65565 53.35128 27778 ft 474 kts 324°
2026-04-23 20:18 -2.62804 53.33314 27916 ft 475 kts 324°
2026-04-23 20:18 -2.60039 53.31496 28031 ft 476 kts 324°
2026-04-23 20:18 -2.57271 53.29677 28140 ft 477 kts 324°
2026-04-23 20:18 -2.54497 53.27853 28264 ft 477 kts 324°
2026-04-23 20:19 -2.51725 53.26032 28411 ft 477 kts 324°
2026-04-23 20:19 -2.49886 53.24824 28529 ft 477 kts 324°
2026-04-23 20:19 -2.47116 53.23003 28706 ft 476 kts 324°
2026-04-23 20:19 -2.44342 53.21178 28857 ft 476 kts 323°
2026-04-23 20:20 -2.40680 53.18767 29072 ft 476 kts 323°
2026-04-23 20:20 -2.36052 53.15720 29314 ft 475 kts 323°
2026-04-23 20:20 -2.33292 53.13903 29454 ft 475 kts 323°
2026-04-23 20:21 -2.30530 53.12086 29598 ft 474 kts 323°
2026-04-23 20:21 -2.27771 53.10271 29731 ft 474 kts 323°
2026-04-23 20:21 -2.25020 53.08461 29818 ft 473 kts 323°
2026-04-23 20:22 -2.19585 53.04886 29831 ft 468 kts 323°
2026-04-23 20:22 -2.14145 53.01307 29833 ft 468 kts 323°
2026-04-23 20:23 -2.08698 52.97727 29828 ft 468 kts 323°
2026-04-23 20:23 -2.03255 52.94153 29840 ft 468 kts 323°
2026-04-23 20:24 -1.97807 52.90578 29840 ft 468 kts 323°
2026-04-23 20:24 -1.92356 52.86999 29828 ft 469 kts 323°
2026-04-23 20:25 -1.86901 52.83419 29840 ft 469 kts 323°
2026-04-23 20:25 -1.81444 52.79838 29834 ft 469 kts 323°
2026-04-23 20:26 -1.75981 52.76254 29826 ft 469 kts 323°
2026-04-23 20:26 -1.70520 52.72671 29836 ft 469 kts 323°
2026-04-23 20:27 -1.65066 52.69092 29846 ft 469 kts 323°
2026-04-23 20:27 -1.59604 52.65508 29832 ft 469 kts 323°
2026-04-23 20:28 -1.54146 52.61928 29847 ft 469 kts 323°
2026-04-23 20:28 -1.48687 52.58347 29843 ft 469 kts 323°
2026-04-23 20:29 -1.43267 52.54792 29847 ft 469 kts 323°
2026-04-23 20:29 -1.37806 52.51209 29831 ft 470 kts 323°
2026-04-23 20:30 -1.32332 52.47619 29848 ft 470 kts 323°
2026-04-23 20:30 -1.24127 52.42238 29845 ft 470 kts 323°
2026-04-23 20:31 -1.18660 52.38653 29843 ft 470 kts 323°
2026-04-23 20:31 -1.13190 52.35066 29845 ft 470 kts 323°
2026-04-23 20:32 -1.07750 52.31499 29833 ft 470 kts 323°
2026-04-23 20:32 -1.02280 52.27912 29846 ft 470 kts 323°
2026-04-23 20:33 -0.96814 52.24328 29830 ft 470 kts 323°
2026-04-23 20:33 -0.91344 52.20742 29846 ft 470 kts 323°
2026-04-23 20:34 -0.85880 52.17160 29844 ft 470 kts 323°
2026-04-23 20:34 -0.80416 52.13577 29846 ft 470 kts 323°
2026-04-23 20:35 -0.74949 52.09993 29847 ft 470 kts 323°
2026-04-23 20:35 -0.69522 52.06435 29844 ft 470 kts 323°
2026-04-23 20:36 -0.64048 52.02846 29845 ft 470 kts 323°
2026-04-23 20:36 -0.58578 51.99261 29840 ft 471 kts 323°
2026-04-23 20:37 -0.53100 51.95670 29846 ft 471 kts 323°
2026-04-23 20:37 -0.47621 51.92079 29836 ft 471 kts 323°
2026-04-23 20:38 -0.42149 51.88492 29845 ft 470 kts 323°
2026-04-23 20:38 -0.36672 51.84901 29839 ft 471 kts 323°
2026-04-23 20:39 -0.31193 51.81310 29848 ft 470 kts 323°
2026-04-23 20:39 -0.25752 51.77744 29828 ft 470 kts 323°
2026-04-23 20:40 -0.20277 51.74155 29846 ft 470 kts 323°
2026-04-23 20:40 -0.14797 51.70564 29834 ft 470 kts 323°
2026-04-23 20:41 -0.09319 51.66973 29847 ft 470 kts 323°
2026-04-23 20:41 -0.03848 51.63388 29844 ft 470 kts 323°
2026-04-23 20:42 0.01630 51.59796 29844 ft 470 kts 323°
2026-04-23 20:42 0.07074 51.56228 29847 ft 470 kts 323°
2026-04-23 20:43 0.12538 51.52647 29831 ft 470 kts 323°
2026-04-23 20:43 0.18005 51.49063 29848 ft 469 kts 323°
2026-04-23 20:44 0.23467 51.45483 29832 ft 470 kts 323°
2026-04-23 20:44 0.28931 51.41901 29848 ft 470 kts 323°
2026-04-23 20:45 0.34398 51.38317 29834 ft 470 kts 323°
2026-04-23 20:45 0.39865 51.34734 29848 ft 470 kts 323°
2026-04-23 20:46 0.45292 51.31177 29829 ft 469 kts 323°
2026-04-23 20:46 0.50749 51.27600 29848 ft 469 kts 323°
2026-04-23 20:47 0.56201 51.24025 29838 ft 469 kts 323°
2026-04-23 20:47 0.61659 51.20448 29848 ft 469 kts 323°
2026-04-23 20:48 0.67110 51.16875 29829 ft 469 kts 323°
2026-04-23 20:48 0.72566 51.13298 29848 ft 469 kts 323°
2026-04-23 20:49 0.78011 51.09729 29832 ft 468 kts 323°
2026-04-23 20:49 0.83466 51.06153 29847 ft 468 kts 323°
2026-04-23 20:50 0.88908 51.02585 29837 ft 468 kts 323°
2026-04-23 20:50 0.94352 50.99015 29847 ft 468 kts 323°
2026-04-23 20:51 0.99764 50.95466 29847 ft 468 kts 323°
2026-04-23 20:51 1.05209 50.91896 29832 ft 468 kts 323°
2026-04-23 20:52 1.10654 50.88326 29848 ft 468 kts 323°
2026-04-23 20:52 1.16104 50.84753 29827 ft 468 kts 323°
2026-04-23 20:53 1.21549 50.81182 29845 ft 468 kts 323°
2026-04-23 20:53 1.26998 50.77608 29829 ft 468 kts 323°
2026-04-23 20:54 1.32449 50.74033 29847 ft 468 kts 323°
2026-04-23 20:54 1.37894 50.70462 29833 ft 468 kts 323°
2026-04-23 20:55 1.43303 50.66913 29848 ft 468 kts 323°
2026-04-23 20:55 1.48752 50.63339 29846 ft 468 kts 323°
2026-04-23 20:56 1.54196 50.59768 29847 ft 468 kts 323°
2026-04-23 20:56 1.59646 50.56193 29847 ft 468 kts 323°
2026-04-23 20:57 1.65092 50.52620 29846 ft 468 kts 323°
2026-04-23 20:57 1.70546 50.49042 29847 ft 468 kts 323°
2026-04-23 20:58 1.75993 50.45468 29832 ft 468 kts 323°
2026-04-23 20:58 1.81443 50.41892 29845 ft 468 kts 323°
2026-04-23 20:59 1.86891 50.38316 29829 ft 468 kts 323°
2026-04-23 20:59 1.92302 50.34765 29847 ft 468 kts 323°
2026-04-23 21:00 1.97752 50.31188 29832 ft 468 kts 323°
2026-04-23 21:00 2.03202 50.27611 29846 ft 468 kts 323°
2026-04-23 21:01 2.08653 50.24032 29846 ft 468 kts 323°
2026-04-23 21:01 2.14103 50.20456 29841 ft 468 kts 323°
2026-04-23 21:02 2.19544 50.16885 29837 ft 467 kts 323°
2026-04-23 21:02 2.24925 50.13351 29826 ft 465 kts 323°
2026-04-23 21:03 2.30348 50.09787 29840 ft 465 kts 323°
2026-04-23 21:03 2.35764 50.06229 29840 ft 466 kts 323°
2026-04-23 21:04 2.41182 50.02671 29834 ft 466 kts 323°
2026-04-23 21:04 2.46594 49.99116 29838 ft 471 kts 323°
2026-04-23 21:05 2.49333 49.97319 29947 ft 471 kts 323°
2026-04-23 21:05 2.52073 49.95521 30076 ft 471 kts 323°
2026-04-23 21:05 2.54807 49.93726 30204 ft 471 kts 323°
2026-04-23 21:05 2.57543 49.91929 30324 ft 470 kts 323°
2026-04-23 21:06 2.60274 49.90133 30470 ft 469 kts 323°
2026-04-23 21:06 2.63001 49.88341 30620 ft 468 kts 323°
2026-04-23 21:06 2.65723 49.86549 30726 ft 468 kts 323°
2026-04-23 21:06 2.68446 49.84755 30781 ft 469 kts 323°
2026-04-23 21:07 2.71123 49.82888 30922 ft 468 kts 319°
2026-04-23 21:07 2.72840 49.81575 30960 ft 469 kts 319°
2026-04-23 21:07 2.77975 49.77546 31126 ft 469 kts 318°
2026-04-23 21:08 2.80527 49.75517 31229 ft 469 kts 317°
2026-04-23 21:08 2.83080 49.73483 31326 ft 468 kts 317°
2026-04-23 21:08 2.88173 49.69427 31506 ft 468 kts 317°
2026-04-23 21:09 2.93269 49.65377 31659 ft 468 kts 317°
2026-04-23 21:09 2.98365 49.61334 31822 ft 466 kts 317°
2026-04-23 21:10 3.03393 49.57346 31834 ft 457 kts 317°
2026-04-23 21:10 3.08367 49.53394 31832 ft 457 kts 317°
2026-04-23 21:11 3.13341 49.49440 31831 ft 457 kts 317°
2026-04-23 21:11 3.18295 49.45506 31831 ft 457 kts 317°
2026-04-23 21:12 3.23274 49.41555 31832 ft 457 kts 317°
2026-04-23 21:12 3.28265 49.37593 31831 ft 457 kts 317°
2026-04-23 21:13 3.33257 49.33630 31832 ft 457 kts 317°
2026-04-23 21:13 3.38215 49.29694 31831 ft 457 kts 317°
2026-04-23 21:14 3.43201 49.25735 31831 ft 457 kts 317°
2026-04-23 21:14 3.48187 49.21775 31832 ft 457 kts 317°
2026-04-23 21:15 3.53171 49.17816 31831 ft 457 kts 317°
2026-04-23 21:15 3.58157 49.13855 31833 ft 457 kts 317°
2026-04-23 21:16 3.63143 49.09893 31832 ft 457 kts 317°
2026-04-23 21:16 3.68117 49.05941 31832 ft 456 kts 317°
2026-04-23 21:17 3.73092 49.01987 31831 ft 456 kts 317°
2026-04-23 21:17 3.78032 48.98060 31833 ft 456 kts 317°
2026-04-23 21:18 3.83010 48.94102 31831 ft 456 kts 317°
2026-04-23 21:18 3.87980 48.90150 31832 ft 456 kts 317°
2026-04-23 21:19 3.92952 48.86196 31832 ft 456 kts 317°
2026-04-23 21:19 3.97926 48.82240 31833 ft 456 kts 317°
2026-04-23 21:20 4.02897 48.78286 31832 ft 456 kts 317°
2026-04-23 21:20 4.07870 48.74330 31833 ft 456 kts 317°
2026-04-23 21:21 4.12834 48.70378 31833 ft 456 kts 317°
2026-04-23 21:21 4.17801 48.66425 31832 ft 456 kts 317°
2026-04-23 21:22 4.22761 48.62476 31831 ft 455 kts 317°
2026-04-23 21:22 4.27683 48.58535 31833 ft 455 kts 317°
2026-04-23 21:23 4.32632 48.54569 31833 ft 456 kts 317°
2026-04-23 21:23 4.37587 48.50601 31831 ft 456 kts 317°
2026-04-23 21:24 4.42542 48.46636 31833 ft 456 kts 317°
2026-04-23 21:24 4.47493 48.42673 31832 ft 456 kts 317°
2026-04-23 21:25 4.52450 48.38704 31831 ft 456 kts 317°
2026-04-23 21:25 4.57404 48.34738 31832 ft 456 kts 316°
2026-04-23 21:26 4.62329 48.30793 31833 ft 456 kts 317°
2026-04-23 21:26 4.67283 48.26824 31832 ft 456 kts 317°
2026-04-23 21:27 4.72232 48.22859 31832 ft 456 kts 316°
2026-04-23 21:27 4.77187 48.18888 31832 ft 456 kts 316°
2026-04-23 21:28 4.82141 48.14918 31832 ft 456 kts 316°
2026-04-23 21:28 4.87063 48.10972 31832 ft 456 kts 316°
2026-04-23 21:29 4.92014 48.07003 31832 ft 456 kts 316°
2026-04-23 21:29 4.96966 48.03033 31833 ft 455 kts 316°
2026-04-23 21:30 5.01911 47.99066 31850 ft 455 kts 316°
2026-04-23 21:30 5.06863 47.95093 31834 ft 456 kts 316°
2026-04-23 21:31 5.11813 47.91121 31852 ft 456 kts 316°
2026-04-23 21:31 5.16774 47.87139 31837 ft 456 kts 316°
2026-04-23 21:32 5.21690 47.83194 31839 ft 455 kts 316°
2026-04-23 21:32 5.26634 47.79224 31835 ft 455 kts 316°
2026-04-23 21:33 5.31579 47.75251 31853 ft 455 kts 316°
2026-04-23 21:33 5.36525 47.71278 31835 ft 455 kts 316°
2026-04-23 21:34 5.41472 47.67304 31845 ft 455 kts 316°
2026-04-23 21:34 5.46413 47.63333 31836 ft 455 kts 316°
2026-04-23 21:35 5.51357 47.59359 31836 ft 455 kts 316°
2026-04-23 21:35 5.56298 47.55386 31835 ft 455 kts 316°
2026-04-23 21:36 5.63714 47.49423 31835 ft 455 kts 316°
2026-04-23 21:37 5.68631 47.45485 31850 ft 455 kts 317°
2026-04-23 21:37 5.73614 47.41541 31833 ft 455 kts 317°
2026-04-23 21:38 5.78594 47.37606 31851 ft 455 kts 317°
2026-04-23 21:38 5.83568 47.33665 31835 ft 455 kts 317°
2026-04-23 21:39 5.88535 47.29725 31844 ft 455 kts 317°
2026-04-23 21:39 5.93513 47.25775 31837 ft 455 kts 317°
2026-04-23 21:40 5.98490 47.21826 31855 ft 455 kts 317°
2026-04-23 21:40 6.03464 47.17878 31835 ft 455 kts 317°
2026-04-23 21:41 6.08398 47.13961 31842 ft 455 kts 317°
2026-04-23 21:41 6.13360 47.10020 31836 ft 455 kts 317°
2026-04-23 21:42 6.18326 47.06076 31851 ft 455 kts 317°
2026-04-23 21:42 6.23292 47.02130 31834 ft 455 kts 317°
2026-04-23 21:43 6.28260 46.98183 31853 ft 455 kts 317°
2026-04-23 21:43 6.33221 46.94239 31837 ft 455 kts 317°
2026-04-23 21:44 6.38186 46.90292 31853 ft 455 kts 317°
2026-04-23 21:44 6.43152 46.86342 31834 ft 455 kts 317°
2026-04-23 21:45 6.48084 46.82419 31853 ft 455 kts 317°
2026-04-23 21:45 6.53047 46.78469 31835 ft 455 kts 317°
2026-04-23 21:46 6.58005 46.74523 31835 ft 455 kts 317°
2026-04-23 21:46 6.62967 46.70572 31837 ft 454 kts 317°
2026-04-23 21:47 6.67930 46.66619 31836 ft 455 kts 317°
2026-04-23 21:47 6.72745 46.62519 31835 ft 452 kts 313°
2026-04-23 21:48 6.77338 46.58187 31835 ft 453 kts 312°
2026-04-23 21:48 6.81953 46.53845 31838 ft 454 kts 313°
2026-04-23 21:49 6.86606 46.49544 31850 ft 454 kts 313°
2026-04-23 21:49 6.91275 46.45264 31835 ft 454 kts 313°
2026-04-23 21:50 6.95911 46.41016 31847 ft 454 kts 313°
2026-04-23 21:50 7.00587 46.36727 31835 ft 454 kts 313°
2026-04-23 21:51 7.05254 46.32442 31854 ft 454 kts 313°
2026-04-23 21:51 7.09919 46.28159 31835 ft 454 kts 313°
2026-04-23 21:52 7.14584 46.23875 31847 ft 454 kts 313°
2026-04-23 21:52 7.19248 46.19589 31836 ft 454 kts 313°
2026-04-23 21:53 7.23908 46.15306 31838 ft 454 kts 313°
2026-04-23 21:53 7.28573 46.11018 31850 ft 453 kts 313°
2026-04-23 21:54 7.33194 46.06768 31835 ft 453 kts 313°
2026-04-23 21:54 7.37846 46.02489 31851 ft 452 kts 313°
2026-04-23 21:55 7.42495 45.98211 31833 ft 452 kts 313°
2026-04-23 21:55 7.47147 45.93929 31854 ft 453 kts 313°
2026-04-23 21:56 7.51804 45.89644 31834 ft 453 kts 313°
2026-04-23 21:56 7.55674 45.86081 31837 ft 453 kts 313°
2026-04-23 21:57 7.60333 45.81789 31835 ft 453 kts 313°
2026-04-23 21:57 7.64991 45.77497 31850 ft 453 kts 313°
2026-04-23 21:58 7.69645 45.73212 31836 ft 453 kts 313°
2026-04-23 21:58 7.74308 45.68930 31844 ft 453 kts 313°
2026-04-23 21:59 7.78973 45.64644 31835 ft 453 kts 313°
2026-04-23 21:59 7.83634 45.60360 31852 ft 453 kts 313°
2026-04-23 22:00 7.90596 45.53957 31844 ft 453 kts 313°
2026-04-23 22:00 7.95258 45.49668 31834 ft 453 kts 313°
2026-04-23 22:01 7.99915 45.45380 31852 ft 453 kts 313°
2026-04-23 22:01 8.04576 45.41089 31836 ft 453 kts 313°
2026-04-23 22:02 8.09239 45.36795 31837 ft 454 kts 313°
2026-04-23 22:02 8.13898 45.32503 31838 ft 453 kts 313°
2026-04-23 22:03 8.18562 45.28205 31837 ft 454 kts 313°
2026-04-23 22:03 8.23223 45.23909 31851 ft 454 kts 313°
2026-04-23 22:04 8.27884 45.19611 31835 ft 454 kts 313°
2026-04-23 22:04 8.32556 45.15301 31852 ft 455 kts 313°
2026-04-23 22:05 8.37230 45.10989 31836 ft 455 kts 313°
2026-04-23 22:05 8.41902 45.06678 31835 ft 455 kts 313°
2026-04-23 22:06 8.46577 45.02362 31853 ft 455 kts 313°
2026-04-23 22:06 8.51249 44.98047 31866 ft 455 kts 313°
2026-04-23 22:07 8.55921 44.93729 31923 ft 456 kts 313°
2026-04-23 22:07 8.60598 44.89406 31923 ft 455 kts 313°
2026-04-23 22:08 8.65239 44.85115 31925 ft 455 kts 313°
2026-04-23 22:08 8.69916 44.80789 31925 ft 455 kts 313°
2026-04-23 22:09 8.74589 44.76465 31923 ft 455 kts 313°
2026-04-23 22:09 8.79300 44.72182 31921 ft 456 kts 314°
2026-04-23 22:10 8.84115 44.68010 31920 ft 456 kts 315°
2026-04-23 22:10 8.88939 44.63842 31920 ft 455 kts 314°
2026-04-23 22:11 8.93739 44.59663 31920 ft 455 kts 314°
2026-04-23 22:11 8.98533 44.55472 31928 ft 456 kts 314°
2026-04-23 22:12 9.03297 44.51303 31919 ft 456 kts 314°
2026-04-23 22:12 9.08092 44.47107 31913 ft 455 kts 314°
2026-04-23 22:13 9.12886 44.42911 31911 ft 455 kts 314°
2026-04-23 22:13 9.17670 44.38720 31919 ft 455 kts 314°
2026-04-23 22:14 9.22454 44.34530 31917 ft 455 kts 314°
2026-04-23 22:14 9.27240 44.30335 31911 ft 455 kts 314°
2026-04-23 22:15 9.32019 44.26146 31914 ft 454 kts 314°
2026-04-23 22:15 9.36804 44.21951 31914 ft 454 kts 314°
2026-04-23 22:16 9.41548 44.17790 31916 ft 454 kts 314°
2026-04-23 22:16 9.46324 44.13598 31914 ft 454 kts 314°
2026-04-23 22:17 9.51174 44.09502 31907 ft 456 kts 320°
2026-04-23 22:17 9.56754 44.06371 31915 ft 460 kts 328°
2026-04-23 22:18 9.62509 44.03581 31919 ft 457 kts 329°
2026-04-23 22:18 9.68273 44.00854 31911 ft 457 kts 329°
2026-04-23 22:19 9.74029 43.98123 31913 ft 457 kts 329°
2026-04-23 22:19 9.79787 43.95377 31914 ft 457 kts 329°
2026-04-23 22:20 9.85539 43.92628 31917 ft 457 kts 329°
2026-04-23 22:20 9.91252 43.89896 31917 ft 457 kts 329°
2026-04-23 22:21 9.97004 43.87144 31920 ft 457 kts 329°
2026-04-23 22:21 10.02755 43.84393 31909 ft 457 kts 329°
2026-04-23 22:22 10.08502 43.81643 31906 ft 457 kts 329°
2026-04-23 22:22 10.14259 43.78886 31907 ft 457 kts 329°
2026-04-23 22:23 10.20017 43.76128 31907 ft 457 kts 329°
2026-04-23 22:23 10.25773 43.73370 31907 ft 457 kts 329°
2026-04-23 22:24 10.31496 43.70626 31907 ft 457 kts 329°
2026-04-23 22:24 10.37247 43.67869 31907 ft 457 kts 329°
2026-04-23 22:25 10.43002 43.65108 31905 ft 457 kts 329°
2026-04-23 22:25 10.48764 43.62343 31897 ft 458 kts 329°
2026-04-23 22:26 10.54534 43.59573 31898 ft 459 kts 329°
2026-04-23 22:26 10.60269 43.56726 31895 ft 458 kts 327°
2026-04-23 22:27 10.65945 43.53789 31895 ft 458 kts 327°
2026-04-23 22:27 10.71635 43.50848 31896 ft 459 kts 327°
2026-04-23 22:28 10.77297 43.47943 31896 ft 459 kts 327°
2026-04-23 22:28 10.83016 43.45017 31896 ft 460 kts 327°
2026-04-23 22:29 10.88732 43.42093 31897 ft 460 kts 327°
2026-04-23 22:29 10.94459 43.39161 31888 ft 460 kts 327°
2026-04-23 22:30 11.00180 43.36229 31888 ft 460 kts 327°
2026-04-23 22:30 11.05869 43.33313 31888 ft 460 kts 327°
2026-04-23 22:31 11.11592 43.30378 31886 ft 461 kts 327°
2026-04-23 22:31 11.17317 43.27441 31888 ft 461 kts 327°
2026-04-23 22:32 11.23053 43.24498 31889 ft 461 kts 327°
2026-04-23 22:32 11.28781 43.21557 31888 ft 462 kts 327°
2026-04-23 22:33 11.34521 43.18608 31887 ft 461 kts 327°
2026-04-23 22:33 11.40274 43.15699 31889 ft 463 kts 328°
2026-04-23 22:34 11.46093 43.12898 31886 ft 468 kts 329°
2026-04-23 22:34 11.52006 43.10069 31885 ft 470 kts 329°
2026-04-23 22:35 11.58191 43.07797 31890 ft 475 kts 337°
2026-04-23 22:35 11.64538 43.05898 31879 ft 474 kts 338°
2026-04-23 22:36 11.70876 43.04063 31878 ft 473 kts 338°
2026-04-23 22:36 11.77221 43.02226 31878 ft 473 kts 338°
2026-04-23 22:37 11.83528 43.00392 31878 ft 474 kts 338°
2026-04-23 22:37 11.89874 42.98542 31876 ft 474 kts 338°
2026-04-23 22:38 11.96214 42.96691 31878 ft 474 kts 338°
2026-04-23 22:38 12.02562 42.94839 31881 ft 474 kts 338°
2026-04-23 22:39 12.08916 42.92984 31878 ft 475 kts 338°
2026-04-23 22:39 12.15281 42.91124 31875 ft 476 kts 338°
2026-04-23 22:40 12.21647 42.89265 31875 ft 476 kts 338°
2026-04-23 22:41 12.31164 42.86481 31864 ft 476 kts 338°
2026-04-23 22:41 12.37529 42.84619 31872 ft 475 kts 337°
2026-04-23 22:42 12.43875 42.82764 31873 ft 473 kts 337°
2026-04-23 22:42 12.50199 42.80910 31867 ft 473 kts 337°
2026-04-23 22:43 12.56527 42.79054 31867 ft 473 kts 337°
2026-04-23 22:43 12.62847 42.77158 31868 ft 472 kts 336°
2026-04-23 22:44 12.68036 42.75449 31869 ft 472 kts 335°
2026-04-23 22:44 12.74285 42.73352 31886 ft 472 kts 335°
2026-04-23 22:45 12.80536 42.71280 31887 ft 472 kts 335°
2026-04-23 22:45 12.86793 42.69226 31888 ft 472 kts 335°
2026-04-23 22:46 12.93066 42.67170 31877 ft 472 kts 335°
2026-04-23 22:46 12.99289 42.65121 31885 ft 472 kts 334°
2026-04-23 22:47 13.05045 42.62116 31882 ft 458 kts 316°
2026-04-23 22:47 13.09399 42.57466 31886 ft 450 kts 297°
2026-04-23 22:48 13.12700 42.51985 31879 ft 453 kts 295°
2026-04-23 22:48 13.15865 42.46363 31888 ft 457 kts 295°
2026-04-23 22:49 13.19055 42.40740 31887 ft 458 kts 295°
2026-04-23 22:49 13.22288 42.35114 31888 ft 457 kts 295°
2026-04-23 22:50 13.25526 42.29500 31888 ft 457 kts 295°
2026-04-23 22:50 13.28764 42.23882 31888 ft 457 kts 295°
2026-04-23 22:51 13.32001 42.18260 31888 ft 457 kts 295°
2026-04-23 22:51 13.35216 42.12673 31888 ft 457 kts 295°
2026-04-23 22:52 13.38444 42.07058 31896 ft 456 kts 295°
2026-04-23 22:52 13.41671 42.01441 31896 ft 456 kts 295°
2026-04-23 22:53 13.44964 41.95846 31898 ft 458 kts 296°
2026-04-23 22:53 13.48443 41.90357 31897 ft 458 kts 297°
2026-04-23 22:54 13.51931 41.84885 31897 ft 457 kts 297°
2026-04-23 22:54 13.55364 41.79435 31897 ft 457 kts 297°
2026-04-23 22:55 13.58805 41.73933 31896 ft 457 kts 296°
2026-04-23 22:55 13.62238 41.68435 31896 ft 457 kts 296°
2026-04-23 22:56 13.65669 41.62939 31897 ft 457 kts 296°
2026-04-23 22:56 13.69103 41.57434 31890 ft 457 kts 296°
2026-04-23 22:57 13.72542 41.51925 31886 ft 457 kts 296°
2026-04-23 22:57 13.75949 41.46461 31886 ft 456 kts 296°
2026-04-23 22:58 13.79374 41.40960 31889 ft 456 kts 296°
2026-04-23 22:58 13.82797 41.35459 31887 ft 456 kts 296°
2026-04-23 22:59 13.86220 41.29955 31888 ft 457 kts 296°
2026-04-23 22:59 13.89648 41.24440 31888 ft 457 kts 296°
2026-04-23 23:00 13.93071 41.18932 31887 ft 456 kts 296°
2026-04-23 23:00 13.96491 41.13422 31887 ft 457 kts 296°
2026-04-23 23:01 13.99911 41.07911 31884 ft 456 kts 296°
2026-04-23 23:01 14.03299 41.02450 31889 ft 455 kts 296°
2026-04-23 23:02 14.06677 40.96950 31890 ft 452 kts 295°
2026-04-23 23:02 14.09871 40.91381 31887 ft 451 kts 294°
2026-04-23 23:03 14.13033 40.85783 31887 ft 452 kts 294°
2026-04-23 23:03 14.16220 40.80195 31887 ft 451 kts 294°
2026-04-23 23:04 14.19416 40.74627 31888 ft 451 kts 294°
2026-04-23 23:04 14.22613 40.69060 31887 ft 451 kts 294°
2026-04-23 23:05 14.25811 40.63485 31887 ft 452 kts 294°
2026-04-23 23:05 14.28987 40.57945 31887 ft 452 kts 294°
2026-04-23 23:06 14.32186 40.52360 31887 ft 452 kts 294°
2026-04-23 23:06 14.35388 40.46765 31864 ft 452 kts 294°
2026-04-23 23:07 14.38578 40.41188 31860 ft 452 kts 294°
2026-04-23 23:07 14.41767 40.35610 31859 ft 451 kts 294°
2026-04-23 23:08 14.45037 40.30064 31861 ft 453 kts 295°
2026-04-23 23:08 14.48354 40.24548 31863 ft 452 kts 295°
2026-04-23 23:09 14.51663 40.19022 31853 ft 452 kts 295°
2026-04-23 23:09 14.54961 40.13487 31859 ft 452 kts 295°
2026-04-23 23:10 14.58229 40.07987 31863 ft 452 kts 295°
2026-04-23 23:10 14.61518 40.02449 31864 ft 452 kts 295°
2026-04-23 23:11 14.64809 39.96904 31865 ft 452 kts 295°
2026-04-23 23:11 14.68092 39.91373 31858 ft 451 kts 295°
2026-04-23 23:12 14.71353 39.85874 31863 ft 450 kts 295°
2026-04-23 23:12 14.74626 39.80351 31862 ft 450 kts 295°
2026-04-23 23:13 14.77886 39.74842 31866 ft 449 kts 295°
2026-04-23 23:13 14.81141 39.69333 31870 ft 449 kts 295°
2026-04-23 23:14 14.84400 39.63818 31867 ft 449 kts 295°
2026-04-23 23:14 14.87653 39.58318 31870 ft 448 kts 294°
2026-04-23 23:15 14.90906 39.52807 31870 ft 448 kts 294°
2026-04-23 23:15 14.94127 39.47345 31864 ft 448 kts 294°
2026-04-23 23:16 14.97367 39.41848 31873 ft 447 kts 294°
2026-04-23 23:16 15.00597 39.36366 31863 ft 445 kts 294°
2026-04-23 23:17 15.03820 39.30888 31868 ft 446 kts 294°
2026-04-23 23:17 15.07048 39.25399 31867 ft 446 kts 294°
2026-04-23 23:18 15.10270 39.19917 31872 ft 446 kts 294°
2026-04-23 23:18 15.13492 39.14432 31867 ft 446 kts 294°
2026-04-23 23:19 15.16695 39.08974 31867 ft 446 kts 294°
2026-04-23 23:19 15.19916 39.03484 31862 ft 445 kts 294°
2026-04-23 23:20 15.23253 38.98062 31865 ft 449 kts 300°
2026-04-23 23:20 15.27790 38.93498 31867 ft 464 kts 317°
2026-04-23 23:21 15.33706 38.90595 31867 ft 481 kts 336°
2026-04-23 23:21 15.40443 38.89867 31880 ft 493 kts 351°
2026-04-23 23:22 15.47292 38.90058 31872 ft 491 kts 352°
2026-04-23 23:22 15.54130 38.90354 31859 ft 491 kts 352°
2026-04-23 23:23 15.60956 38.90628 31860 ft 491 kts 352°
2026-04-23 23:23 15.67768 38.90883 31852 ft 489 kts 352°
2026-04-23 23:24 15.74566 38.91127 31859 ft 489 kts 352°
2026-04-23 23:24 15.81328 38.91363 31846 ft 490 kts 352°
2026-04-23 23:25 15.88156 38.91606 31856 ft 491 kts 352°
2026-04-23 23:25 15.94987 38.91852 31845 ft 491 kts 352°
2026-04-23 23:26 16.01825 38.92100 31848 ft 491 kts 352°
2026-04-23 23:26 16.08660 38.92346 31838 ft 491 kts 352°
2026-04-23 23:27 16.15504 38.92594 31847 ft 492 kts 352°
2026-04-23 23:27 16.22300 38.92839 31850 ft 492 kts 352°
2026-04-23 23:28 16.29137 38.93086 31837 ft 492 kts 352°
2026-04-23 23:28 16.35983 38.93334 31847 ft 492 kts 352°
2026-04-23 23:29 16.42802 38.93583 31839 ft 487 kts 352°
2026-04-23 23:29 16.49537 38.93831 31833 ft 483 kts 351°
2026-04-23 23:30 16.56260 38.94067 31832 ft 483 kts 351°
2026-04-23 23:30 16.62982 38.94305 31831 ft 483 kts 351°
2026-04-23 23:31 16.69667 38.94547 31832 ft 483 kts 351°
2026-04-23 23:31 16.76398 38.94792 31832 ft 484 kts 351°
2026-04-23 23:32 16.83131 38.95036 31833 ft 484 kts 351°
2026-04-23 23:32 16.88735 38.95240 31833 ft 484 kts 351°
2026-04-23 23:33 16.95467 38.95485 31836 ft 484 kts 351°
2026-04-23 23:33 17.02219 38.95731 31920 ft 484 kts 351°
2026-04-23 23:34 17.08957 38.95976 31973 ft 484 kts 351°
2026-04-23 23:34 17.15654 38.96220 31969 ft 484 kts 351°
2026-04-23 23:35 17.22395 38.96466 31981 ft 484 kts 351°
2026-04-23 23:35 17.29127 38.96711 31983 ft 484 kts 351°
2026-04-23 23:36 17.35871 38.96956 31982 ft 485 kts 351°
2026-04-23 23:36 17.42573 38.97201 31980 ft 485 kts 351°
2026-04-23 23:37 17.49327 38.97446 31980 ft 485 kts 351°
2026-04-23 23:37 17.56072 38.97686 31984 ft 485 kts 351°
2026-04-23 23:38 17.62815 38.97927 31982 ft 485 kts 351°
2026-04-23 23:38 17.69563 38.98168 31977 ft 485 kts 351°
2026-04-23 23:39 17.76305 38.98410 31975 ft 485 kts 351°
2026-04-23 23:39 17.83061 38.98653 31920 ft 485 kts 351°
2026-04-23 23:40 17.89780 38.98894 31929 ft 486 kts 351°
2026-04-23 23:40 17.96552 38.99137 31929 ft 486 kts 351°
2026-04-23 23:41 18.03317 38.99380 31922 ft 486 kts 351°
2026-04-23 23:41 18.10085 38.99624 31929 ft 487 kts 351°
2026-04-23 23:42 18.16865 38.99868 31927 ft 488 kts 351°
2026-04-23 23:42 18.23655 39.00189 31939 ft 489 kts 352°
2026-04-23 23:43 18.30417 39.00590 31957 ft 489 kts 352°
2026-04-23 23:43 18.37217 39.00987 32041 ft 488 kts 352°
2026-04-23 23:44 18.44007 39.01368 32093 ft 488 kts 352°
2026-04-23 23:44 18.50786 39.01743 32091 ft 488 kts 352°
2026-04-23 23:45 18.57585 39.02117 32082 ft 489 kts 352°
2026-04-23 23:45 18.64336 39.02489 32026 ft 489 kts 352°
2026-04-23 23:46 18.71131 39.02866 31948 ft 489 kts 352°
2026-04-23 23:46 18.77933 39.03244 31936 ft 489 kts 352°
2026-04-23 23:47 18.84729 39.03621 31937 ft 489 kts 352°
2026-04-23 23:47 18.91529 39.03998 31924 ft 489 kts 352°
2026-04-23 23:48 18.98327 39.04376 31924 ft 489 kts 352°
2026-04-23 23:48 19.05128 39.04754 31917 ft 489 kts 352°
2026-04-23 23:49 19.15123 39.04378 31904 ft 467 kts 336°
2026-04-23 23:49 19.21433 39.02725 31905 ft 469 kts 334°
2026-04-23 23:50 19.27711 39.00890 31897 ft 472 kts 333°
2026-04-23 23:50 19.34048 38.99041 31896 ft 472 kts 334°
2026-04-23 23:51 19.40381 38.97223 31887 ft 471 kts 334°
2026-04-23 23:51 19.46713 38.95416 31877 ft 471 kts 334°
2026-04-23 23:52 19.53053 38.93607 31876 ft 471 kts 334°
2026-04-23 23:52 19.59395 38.91794 31872 ft 472 kts 334°
2026-04-23 23:53 19.65695 38.89991 31858 ft 472 kts 334°
2026-04-23 23:53 19.72043 38.88173 31864 ft 472 kts 334°
2026-04-23 23:54 19.78394 38.86353 31857 ft 473 kts 334°
2026-04-23 23:54 19.84752 38.84529 31845 ft 473 kts 334°
2026-04-23 23:55 19.91113 38.82703 31851 ft 473 kts 334°
2026-04-23 23:55 19.97476 38.80875 31837 ft 474 kts 334°
2026-04-23 23:56 20.03849 38.79042 31833 ft 474 kts 334°
2026-04-23 23:56 20.10233 38.77203 31800 ft 476 kts 334°
2026-04-23 23:57 20.16588 38.75373 31796 ft 476 kts 334°
2026-04-23 23:57 20.22989 38.73528 31793 ft 476 kts 334°
2026-04-23 23:58 20.29395 38.71679 31796 ft 477 kts 334°
2026-04-23 23:58 20.35814 38.69826 31800 ft 477 kts 334°
2026-04-23 23:59 20.42219 38.67974 31823 ft 477 kts 334°
2026-04-23 23:59 20.48589 38.66132 31824 ft 477 kts 334°
2026-04-24 00:00 20.54993 38.64278 31813 ft 477 kts 334°
2026-04-24 00:00 20.61403 38.62420 31813 ft 477 kts 334°
2026-04-24 00:01 20.67821 38.60558 31811 ft 478 kts 334°
2026-04-24 00:01 20.74238 38.58696 31803 ft 478 kts 334°
2026-04-24 00:02 20.80743 38.57101 31800 ft 488 kts 344°
2026-04-24 00:02 20.84173 38.56991 31778 ft 500 kts 354°
2026-04-24 00:02 20.87611 38.57539 31773 ft 512 kts
2026-04-24 00:03 20.91004 38.58799 31774 ft 521 kts 17°
2026-04-24 00:03 20.94225 38.60604 31776 ft 523 kts 22°
2026-04-24 00:03 21.00432 38.64629 31770 ft 521 kts 24°
2026-04-24 00:04 21.06557 38.68762 31767 ft 520 kts 24°
2026-04-24 00:04 21.12711 38.72867 31766 ft 520 kts 24°
2026-04-24 00:05 21.18844 38.76913 31757 ft 520 kts 24°
2026-04-24 00:05 21.25018 38.80976 31758 ft 520 kts 24°
2026-04-24 00:06 21.31180 38.85035 31758 ft 520 kts 24°
2026-04-24 00:06 21.37356 38.89110 31757 ft 521 kts 24°
2026-04-24 00:07 21.43538 38.93193 31748 ft 521 kts 24°
2026-04-24 00:07 21.49714 38.97278 31748 ft 521 kts 24°
2026-04-24 00:08 21.55883 39.01362 31752 ft 521 kts 24°
2026-04-24 00:08 21.62053 39.05450 31748 ft 521 kts 24°
2026-04-24 00:09 21.68467 39.08608 31752 ft 500 kts
2026-04-24 00:09 21.71847 39.09243 31750 ft 488 kts 353°
2026-04-24 00:09 21.75198 39.09190 31748 ft 476 kts 342°
2026-04-24 00:10 21.78398 39.08485 31748 ft 465 kts 331°
2026-04-24 00:10 21.81429 39.07330 31739 ft 462 kts 328°
2026-04-24 00:10 21.87402 39.04694 31746 ft 465 kts 326°
2026-04-24 00:11 21.93406 39.01960 31747 ft 471 kts 326°
2026-04-24 00:11 21.99454 38.99267 31749 ft 470 kts 327°
2026-04-24 00:12 22.05514 38.96608 31749 ft 470 kts 327°
2026-04-24 00:12 22.11540 38.93966 31748 ft 471 kts 327°
2026-04-24 00:13 22.17622 38.91297 31748 ft 471 kts 327°
2026-04-24 00:13 22.23697 38.88626 31748 ft 471 kts 327°
2026-04-24 00:14 22.29779 38.85949 31748 ft 472 kts 327°
2026-04-24 00:14 22.35863 38.83267 31758 ft 472 kts 327°
2026-04-24 00:15 22.41908 38.80601 31758 ft 472 kts 327°
2026-04-24 00:15 22.47987 38.77918 31758 ft 472 kts 327°
2026-04-24 00:16 22.54067 38.75231 31757 ft 472 kts 327°
2026-04-24 00:16 22.60157 38.72538 31757 ft 472 kts 327°
2026-04-24 00:17 22.66238 38.69847 31758 ft 472 kts 327°
2026-04-24 00:17 22.72328 38.67148 31758 ft 472 kts 327°
2026-04-24 00:18 22.78375 38.64463 31757 ft 473 kts 327°
2026-04-24 00:18 22.84464 38.61759 31758 ft 473 kts 326°
2026-04-24 00:19 22.90550 38.59053 31758 ft 473 kts 326°
2026-04-24 00:19 22.96641 38.56343 31757 ft 473 kts 326°
2026-04-24 00:20 23.02722 38.53635 31758 ft 473 kts 326°
2026-04-24 00:20 23.07791 38.51374 31749 ft 473 kts 326°
2026-04-24 00:21 23.14868 38.48216 31748 ft 473 kts 326°
2026-04-24 00:21 23.20952 38.45498 31748 ft 473 kts 326°
2026-04-24 00:22 23.26051 38.43218 31748 ft 472 kts 326°
2026-04-24 00:22 23.32092 38.40515 31739 ft 472 kts 326°
2026-04-24 00:23 23.38179 38.37787 31739 ft 472 kts 326°
2026-04-24 00:23 23.44259 38.35061 31728 ft 472 kts 326°
2026-04-24 00:24 23.50344 38.32329 31728 ft 473 kts 326°
2026-04-24 00:24 23.56425 38.29597 31720 ft 472 kts 326°
2026-04-24 00:25 23.62502 38.26864 31720 ft 472 kts 326°
2026-04-24 00:25 23.68551 38.24142 31711 ft 472 kts 326°
2026-04-24 00:26 23.74628 38.21401 31711 ft 472 kts 326°
2026-04-24 00:26 23.80713 38.18654 31702 ft 473 kts 326°
2026-04-24 00:27 23.86804 38.15901 31701 ft 473 kts 326°
2026-04-24 00:27 23.92891 38.13149 31700 ft 474 kts 326°
2026-04-24 00:28 23.98979 38.10393 31692 ft 474 kts 326°
2026-04-24 00:28 24.05030 38.07651 31693 ft 474 kts 326°
2026-04-24 00:29 24.11125 38.04887 31692 ft 474 kts 326°
2026-04-24 00:29 24.16872 38.01607 31683 ft 458 kts 316°
2026-04-24 00:30 24.22182 37.97733 31691 ft 460 kts 314°
2026-04-24 00:30 24.27449 37.93744 31696 ft 460 kts 314°
2026-04-24 00:31 24.32742 37.89732 31724 ft 465 kts 314°
2026-04-24 00:31 24.38070 37.85714 31773 ft 470 kts 314°
2026-04-24 00:32 24.43471 37.81659 31974 ft 470 kts 314°
2026-04-24 00:32 24.46172 37.79630 32094 ft 470 kts 314°
2026-04-24 00:32 24.48872 37.77598 32170 ft 471 kts 314°